Volver al catálogo

OPS 7613

P/L 3

ActivoNavegaciónLEO
NORAD 4259·PAYLOAD·🇺🇸 United States

Lanzado Sep 30, 1969 desde Vandenberg Space Force Base

Loading…

Próximos Pases (próximas 24 horas)

TLE

ActualizadoSource: Space-Track

Época: Sep 14, 2026, 13:21 UTC

1 04259U 69082D   26257.55661517 -.00000013  00000-0  29289-4 0  9992
2 04259  70.0151 304.9663 0019408  25.3156 142.3374 13.95132831994148

Sigue OPS 7613 en tiempo real con AllMySat

Download on the App Store